[Date Prev][Date Next][Thread Prev][Thread Next][Date Index][Thread Index]

[jamsat-news:1584] jas2info #242



========================   最新情報   ==============================

        Last updated :17SEP2001  21:10(JST)   #242

==================================================================
   
  1)アマチュア通信衛星情報、FOシリーズの軌道要素、テレメトリ、QSOの
   状況等をまとめてみました.
   
   FO−29の2001年9月17日(月)の19:56(JST)のパスでは
  JARLのホームページのとうりアナログ運用でした。 今日までの観測した
  テレメトリーと最終の分析結果を掲載しておきます.

AS25112C1    17SEP2001
19:56-20:08(JST)
FREQ.435.805-.786MHz

HI HI AE C7 88 55 00 D4 00 00 00 00 9D 4B 42 67 90 8E 9C 77 92 90 93 92 8D 
HI HI AE C7 88 55 00 D4 00 00 09 00 92 47 42 67 90 8E 9C 7E 92 90 93 92 8D 
HI HI AE C7 88 55 00 D4 00 00 09 00 87 43 43 66 90 8D 9C 61 92 90 93 92 8D 
HI HI AE C7 88 55 00 D4 00 00 09 00 7B 40 42 67 8F 8D 9B 80 92 90 93 92 8D 
HI HI AE C7 88 55 00 D4 00 00 09 00 70 3E 41 68 8F 8D 9A 80 92 90 93 92 8D 
HI HI AE C7 88 55 00 D4 00 00 09 00 66 3C 46 65 8F 8D 9F 7F 92 91 93 92 8D 
HI HI AE C7 88 55 00 D4 00 00 09 00 5E 3C 46 64 8F 8D 9F 6C 92 90 93 82 8D 
HI HI AE C7 88 55 00 D4 00 00 09 00 58 3C 46 65 8F 8D 9F 74 92 90 93 92 8D 
HI HI AE C7 88 55 00 D4 00 00 09 00 52 3D 3A 6B 8F 8D 93 86 92 91 93 92 8D 
HI HI AE C7 88 55 00 D4 00 00 09 00       7D 8C 8B 8D 9F 88 92 91 93 92 8D 
HI HI AE C7 88 55 00 D4 00 00 09 00    3F 0E    8B 8F 77 92 92 91 93 92 8D
HI HI AE C7 88 55 01 D4 00 00 09 00 48 43 41 87 8A 8A 95 87 92 91 93 92 8D 
HI HI AE C7 88 55 00 D4 00 00 09 00 50 46 41 86 8A 89 95 6B 92 91 93 92 8D  

AS25066C1   14SEP2001
9:44-9:52(JST)
FREQ.435.801-.794MHz

HI HI AE C7 88 55 00 D4 00 00 00    94 72 7A 65 9E 9B B0 72 9E A0 9A 95 9A 
HI HI AE C7 88 55 00 D4 00 09 00 00 64 61 7D 64 9E 9B B0 7C 9E A0 9A 95 9A 
HI HI AE C7 88 55 00 D4 00 09 00 00 87 41 7F 64 9E 9B B0 86 9E 9F 9A 95 9A 
HI HI AE C7 88 55 00 D4 00 09 00 00 5A       64 9F 9B B0 62 9E A0 9A 95 9A 
HI HI AE C7 88 55 00 D4 00 00 00 00 6A 32 7F 64 9F 9B B0 6C 9E 9F 9A 95 9A
HI HI AE C7 88 55 00 D4 00 00 00 00 58 33 7E 84 9F 9B B0 6F 9E 9F 9A 94 9A 
HI HI AE C7 88 55 00 D4 00 00 09 00 48 3B 7B 64 9E 9B B0 6B 9E 9F 9A 94 9A 
HI HI AE C7 88 55 00 D4 00 00 09 00 3B 48 77 64 9E 9B B0 75 9E 9F 9A 94 9A 
HI HI AE C7 88 55 00 D4 00 00 09 00 31 5B 76 64 9E 9A B0 7E 9E 9F 9A 94 9A 
HI HI AE C7 88 55 00 D5 00 00 09 00 2D 6F 70 64 9E 9B B0 62 9E 9F 9A 94 9A 
HI HI AE C7 88 55 00 D4 00 00 09 00 2E 85 6D 64 9E 9B B0 63 9E 9F 9A 94 9A 

AS25044C1   12SEP2001
19:16-19:25(JST)
FREQ. 435.802-.787MHz

HI HI AE C7 88 55 00 D4 73 S7 09 59 9B 9D 6D 64 9D 99 B0 52 95 90 96 98 93   
HI HI AE C7 88 55 00 D4 73 F7 09 59 96 9E 6E 64 9D 99 B0 53 95 90 96 98 93
HI HI AE C7 88 55 00 D4 73 F7 09 59 91 9C 6E 64 9D 99 B0 72 95 90 96 98 93 
HI HI AE C7 88 55 00 D4 73 F7 09 59 8F 9B 6A 64 9D 99 B0 75 95 8F 96 98 93 
HI HI AE C7 88 55 00 D4 73 F7 09 59 8D 99 68 64 9D 99 B0 56 95 90 96 97 93 
HI HI AE C7 88 55 00 D4 73 F7 09 59 8B 97 49 66 9C 99 B0 52 94 90 96 97 93 
HI HI AE C7 88 55 00 D4 73 F7 09 59 88 95 55 64 9C 99 B0 67 94 90 96 97 93 
HI HI AE C7 88 55 00 D4 73 F7 09 59 85 92 56 64 9C 99 B0 73 94 90 96 97 93 
HI HI AE C7 88 55 00 D4 73 F7 09 59 80 8A 56 64 9C 99 B0 82 94 90 96 97 93 
HI HI AE C7 88 55 00 D4 73 F7 09 59 7D 8C 60 68 8B 8A 95 70 94 91 96 96 93 
HI HI AE 05 88 55 00 D4 73 F7 09 59 78 89 58 66 6A 89 95 7E 94 91 95 96 93 
 
AS5039C1  12SEP2001
09:48-09:59(JST)
FREQ.435.801-794MHz

HI HI AE C7 88 55 00 D4 8A D2 09 08 64 75 54 64 9D 99 B0 94 99 96 94 96 94 
HI HI AE C7 88 55 00 D4 8A D2 09 08 5E 7A 55 64 9D 99 B0 7F 99 97 94 96 94 
HI HI AE C7 88 55 00 D4 8A D2 09 08 58 7F 55 64 9D 99 B0 78 99 96 94 96 94 
HI HI AE C7 88 55 00 D4 8A D2 09 08 52 82 54 64 9D 99 B0 73 99 96 94 96 94 
HI HI AE C7 88 55 00 D4 8A D2 09 08 4B 84 54 64 9D 99 B0 66 99 96 94 96 94 
HI HI AE C7 88 55 00 D4 8A D2 09 08 44 84 53 64 9D 99 B0 65 99 96 94 96 94 
HI HI AE C7 88 55 00 D4 8A D2 09 08 3E 83 54 64 9D 99 B0 8E 99 96 94 96 93 
HI HI AE C7 88 55 00 D4 8A D2 09 08    51 54 64 9D 99 B0 79 99 96 94 96 94 
HI HI AE C7 88 55 00 D4 8A D2 29 08 33 7E 54 64 9D 99 B0 AE 99 96 94 96 94 
HI HI AE C7 88 55 00 D4 8A D2 09 08 2A 6C 56 64 9D 99 B0 5F 9A 9E 
   
------------------------ FO-29の軌道要素 ------------------------------        
 
  ■ 軌道要素1:「jamsat−keps:1032」より         
          SB KEPS @ AMSAT  $ORB01250.N
          2Line Orbital Elements 01250.AMSAT

HR AMSAT ORBITAL ELEMENTS FOR AMATEUR SATELLITES IN NASA FORMAT
FROM WA5QGD FORT WORTH,TX September 7, 2001
SEND SUBSCRIBE/UNSUBSCRIBE TO majordomo@amsat.org ONLY
BID: ORB01250.N

 DECODE 2-LINE ELSETS WITH THE FOLLOWING KEY:
 1 AAAAAU 00  0  0 BBBBB.BBBBBBBB  .CCCCCCCC  00000-0  00000-0 0  DDDZ
 2 AAAAA EEE.EEEE FFF.FFFF GGGGGGG HHH.HHHH III.IIII JJ.JJJJJJJJKKKKKZ
 KEY: A-CATALOGNUM B-EPOCHTIME C-DECAY D-ELSETNUM E-INCLINATION F-RAAN
 G-ECCENTRICITY H-ARGPERIGEE I-MNANOM J-MNMOTION K-ORBITNUM Z-CHECKSUM

FO-29
1 24278U 96046B   01248.67012234  .00000004  00000-0  38232-4 0 04438
2 24278 098.5316 102.9242 0351052 153.1482 208.8314 13.52779436249522

 ■ 軌道要素2:「jamsat−keps:1031」より
        SB KEPS @ AMSAT  $ORB01250.O
        Orbital Elements  01250.OSCAR

HR AMSAT ORBITAL ELEMENTS FOR OSCAR SATELLITES
FROM WA5QGD FORT WORTH,TX September 7, 2001
SEND SUBSCRIBE/UNSUBSCRIBE TO majordomo@amsat.org ONLY
BID: ORB01250.O
TO ALL RADIO AMATEURS BT
 
Satellite: FO-29
Catalog number: 24278
Epoch time:      01248.67012234
Element set:    0443
Inclination:      098.5316 deg
RA of node:       102.9242 deg
Eccentricity:    0.0351052
Arg of perigee:   153.1482 deg
Mean anomaly:     208.8314 deg
Mean motion:   13.52779436 rev/day
Decay rate:        4.0e-08 rev/day^2
Epoch rev:           24952
Checksum:              288

-------------------  FO-29(JAS-2)のテレメトリに関する情報  ---------------------- 
 
2)上記9月17日(月)のテレメトリの最終行を分析しておきます.

AS25112C1    17SEP2001
19:56-20:08(JST)
FREQ.435.805-.786MHz

HI HI AE C7 88 55 00 D4 00 00 09 00 50 46 41 86 8A 89 95 6B 92 91 93 92 8D

テレメトリ   内 容         換算算値 単 位
3C	磁気センサーZ軸=	39215.7	[nT]
3D	磁気センサX軸	=	34313.7	[nT]
4A	太陽電池発生電流=	  637.3	[mA]
4B	B充放電電流	=	  626.4	[mA]
4C	B端子電圧	=	   14.9	[V]
4D	B中間端子電圧	=	    6.6	[V]
5A	バス電圧	=	   14.6	[V]
5B	JTA送信電力	=	  597.4	[mW]
5C 	構体温度1	=	   25.2	[℃]
5D	構体温度2	=	   25.6	[℃]
6A	構体温度3	=	   24.8	[℃]
6B	構体温度4	=	   25.2	[℃]
6C	Bセル温度	=	   27.1	[℃]

 ========================== FO-29(ふじ3号)のQSO情報等 ======================
   
 3)[jamsat-bb:

 ===============================================================================
   4)JARL のホームページに運用予定が記載されていましたのでご紹介します.
       ( http://www.jarl.or.jp/Japanese/3_Fuji/new/uy.htm )

        ■ ふじ3号/FOー29/JAS-2 ■  
   
     *** 運用予定について ***

 7月2日(月) 〜 10月1日(月)アナログ系運用 


  *なお,運用予定は都合により変更することがありますので予めご了承願います。

 照会先 : lab@jarl.or.jp

 最新の情報はテレホンサービス(03−3942−1000)をお聞きください。  
 以後の運用につきましては平成13年10月上旬にお知らせ致します。
    
-----------------------    FO−20(JAS-1b)道要素   -------------------------
  5)
  ■ 軌道要素1 :出典はFO-29「ふじ3号」に同じ.
  
FO-20
1 20480U 90013C   01250.65657922  .00000011  00000-0  89059-4 0  3392
2 20480  99.0523 303.6413 0540659 122.4094 243.0493 12.83296964542674
 
  ■ 軌道要素2 :出典はFO−29「ふじ3号」に同じ.
               
Satellite: FO-20
Catalog number: 20480
Epoch time:      01250.65657922
Element set:     339
Inclination:       99.0523 deg
RA of node:       303.6413 deg
Eccentricity:    0.0540659
Arg of perigee:   122.4094 deg
Mean anomaly:     243.0493 deg
Mean motion:   12.83296964 rev/day
Decay rate:        1.1e-07 rev/day^2
Epoch rev:           54267
Checksum:              292

 --------------------------------------------------------------------------------
 
         ■ ふじ2号/FO−20/JAS-1b ■      
            
          「ふじ2号」 現況                                                                                  
             
   JAS-1b(ふじ2号)のCWテレメトリ信号に,1997年10月12日12時(JST)の
 日本上空通過時,3桁の数字が繰り返されるはずが3個の長音の繰り返しとなっているという
 異常が発見されました。この不具合は次の通過時からは回復していましたが13日15時20分の
 通過時に再び観測されました。現在はA0の送信が続いています。衛星のアナログ系中継モード
 動作は異常が無く,正常時のテレメトリ内容からは衛星の動作に異常は認められません。従って,
 直ちに衛星のミッションに影響することは無いと予想されますので,当面はアナログ系中継
 モードを継続します。衛星は既に打ち上げてから7年8ヶ月を経ておりますので,今後は監視を
 強化する予定です。アマチュア各位のレポートをお待ちします。
 -------------------------------------------------------------------------------- 
  1997年10月14日 00時35分 確認のテレメトリ音 151 KB (A0) 
  1997年10月14日 11時10分 確認のテレメトリ音 216 KB (異常キーイング) 

  以上 JARLのホ−ムページの http://www.jarl.or.jp/Japanese/3_Fuji/new/fuji.htm

===================== FO-20 ふじ2号 のテレメトリ観測結果 ====================

  7月19日(木)19:45(JST)の観測結果では以前観測した単一周波数の
ドップラー効果で周波数がずれていくのみの状態でした。
                                         
   =============   JAS-2 (ふじ3号)と現在までの情報   ===========
  
  A.電話によるふじ3号の運用情報
      社団法人日本アマチュア連盟によるサービス
           TEL .   03− 3942 − 1000
  B.アマチュア無線FAXサービス
      JARLによるふじ3号の軌道情報(オービットカレンダー)
         FAX No.  03− 3233 −0055
  C.WWWブラウザで情報を簡単に見れる人のためにJAS−2
     ふじ3号の衛星としての運用されるまでの名前)の概要、打ち上げ
     までの状況、運用中における状況を説明したホームページを紹介し
     ておきます.
     社団法人日本アマチュア無線連盟(JARL)のホームページ

          http://www.jarl.or.jp/Japanese/3_Fuji/jasmenu.htm
 
     宇宙開発事業団(NASDA)ホームページ 
          http://www.nasda.go.jp/
         打上げ衛星 :地球観測プラットフォーム技術衛星(ADEOS) 
                       アマチュア衛星3号(JAS-2)
          http://spaceboy.nasda.go.jp/note/eisei/j/Eis15h_j.html#Eis15h_01_j
     http://spaceboy.nasda.go.jp/note/eisei/j/Eis15i_j.html        

  D.JAMSATによる軌道情報の活用
        JAMSATのホームページまたはjamsat−kepsの軌道要素より
      衛星の軌道情報を得る.
     JAMSATホームページ
               URL    http://www.jamsat.or.jp
       上記ホームページでは各地で行われるアマチュア通信衛星に関する
      ミューティングのお知らせや世界のアマチュア衛星に関する情報が
      満載されています.
 ========================================================================  
     JAMSATのメンバーのご協力によりJH6MME(高山 秀造)が
    執筆・編集を担当しております.ご指摘の意見、疑問やこのようにしたら
    というアイデアがありましたら小さなことでもかまいませんので気軽に下
    記アドレスまでご連絡ください.jamsat−newsからjas2
    infoへの転載をJH4PHW局坂井さんに担当して頂いております.  
                  E-mail : jh6mme@jamsat.or.jp : jh4phw@jamsat.or.jp
 ===============================   END  ===============================